Location: Monrovia
(34.7865°N, 86.7139°W)
Time: 22:00:39
(UTC+00:00)

Cosmos 2369 Rocket - Pass Details

Date: 14 July 2020
Orbit: 830 x 851 km, 71.0° (Epoch: 08 August)

Event Time Altitude Azimuth Distance (km) Brightness Sun altitude
Rises 04:25:41 0° 346° (NNW) 3,380 6.5 -29.9°
Reaches altitude 10° 04:28:15 10° 353° (N) 2,445 5.4 -30.1°
Enters shadow 04:32:57 41° 46° (NE) 1,186 3.0 -30.5°
